This is the latest recevied weather packets stored in our database for station/object EA2RCU-15. If no packets are shown the sender has not sent any weather packets the latest 10 day(s).
| Time | Temp. | Humidity | Pressure | Rain* | Wind** | Luminosity | Snow |
|---|---|---|---|---|---|---|---|
| 1787387704 | 20° C | 55% | 1001 hPa | 0 mm | - | - | - |
| 1787387404 | 20° C | 55% | 1001 hPa | 0 mm | - | - | - |
| 1787387104 | 20° C | 58% | 1001 hPa | 0 mm | - | - | - |
| 1787386804 | 19.44° C | 59% | 1001 hPa | 0 mm | - | - | - |
| 1787386504 | 19.44° C | 61% | 1001 hPa | 0 mm | - | - | - |
| 1787386204 | 18.89° C | 62% | 1001 hPa | 0 mm | - | - | - |
| 1787385904 | 18.89° C | 64% | 1001 hPa | 0 mm | - | - | - |
| 1787385604 | 18.33° C | 64% | 1001 hPa | 0 mm | - | - | - |
| 1787385304 | 18.33° C | 65% | 1001 hPa | 0 mm | - | - | - |
| 1787385004 | 18.33° C | 64% | 1001 hPa | 0 mm | - | - | - |
| 1787384704 | 18.33° C | 65% | 1001 hPa | 0 mm | - | - | - |
| 1787384404 | 18.33° C | 66% | 1001 hPa | 0 mm | - | - | - |
| 1787384104 | 17.22° C | 70% | 1001 hPa | 0 mm | - | - | - |
| 1787383804 | 17.22° C | 70% | 1001 hPa | 0 mm | - | - | - |
| 1787383504 | 17.22° C | 70% | 1001 hPa | 0 mm | - | - | - |
| 1787383204 | 17.22° C | 70% | 1001 hPa | 0 mm | - | - | - |
| 1787382904 | 17.22° C | 71% | 1001 hPa | 0 mm | - | - | - |
| 1787382604 | 16.67° C | 73% | 1001 hPa | 0 mm | - | - | - |
| 1787382304 | 16.67° C | 72% | 1001 hPa | 0 mm | - | - | - |
| 1787382004 | 16.11° C | 76% | 1001 hPa | 0 mm | - | - | - |
| 1787381704 | 16.11° C | 77% | 1001 hPa | 0 mm | - | - | - |
| 1787381403 | 15.56° C | 76% | 1001 hPa | 0 mm | - | - | - |
| 1787381104 | 15.56° C | 78% | 1001 hPa | 0 mm | - | - | - |
| 1787380804 | 15.56° C | 78% | 1001 hPa | 0 mm | - | - | - |
| 1787380504 | 15.56° C | 78% | 1001 hPa | 0 mm | - | - | - |
* Rain latest hour (hover to see other rain measurements)
** Current wind speed in m/s (hover to see current wind gust speed)